Location: Miramichi City (Newcastle)
(46.9830°N, 65.5670°W)
Time: 03:43:27
(UTC-03:00)

Iridium 12 - Visible Passes

Search period start: 28 July 2016 00:00
Search period end: 07 August 2016 00:00
Orbit: 776 x 779 km, 86.4° (Epoch: 27 July)

Date Brightness Start Highest point End Pass type
(mag) Time Alt. Az. Time Alt. Az. Time Alt. Az.
28 Jul 5.7 01:20:48 10° N 01:25:56 59° W 01:26:42 53° SW visible
28 Jul 7.7 23:09:03 10° NE 23:10:48 12° ENE 23:12:34 10° E visible
29 Jul 5.4 00:47:11 10° N 00:52:27 81° E 00:53:13 65° SSE visible
29 Jul 7.6 02:29:43 10° NW 02:32:26 14° WNW 02:33:41 13° W visible
30 Jul 6.0 00:13:47 10° N 00:18:49 46° E 00:19:43 42° ESE visible
30 Jul 7.0 01:55:06 10° NNW 01:59:15 25° W 02:00:11 23° W visible
30 Jul 6.8 23:40:39 10° NNE 23:45:05 27° ENE 23:46:14 25° E visible
31 Jul 6.2 01:21:04 10° NNW 01:25:57 42° W 01:26:42 39° WSW visible
31 Jul 7.4 23:07:59 10° NNE 23:11:12 16° ENE 23:12:45 14° E visible
01 Aug 5.5 00:47:18 10° N 00:52:32 74° W 00:53:13 64° SW visible
02 Aug 5.5 00:13:47 10° N 00:18:59 65° E 00:19:45 57° SE visible
02 Aug 7.4 01:55:44 10° NW 01:59:09 18° WNW 02:00:13 17° W visible
02 Aug 6.3 23:40:29 10° NNE 23:45:20 37° E 23:46:16 34° ESE visible
03 Aug 6.7 01:21:25 10° NNW 01:25:56 30° W 01:26:44 29° W visible
03 Aug 7.0 23:07:29 10° NNE 23:11:32 22° ENE 23:12:49 20° E visible
04 Aug 5.9 00:47:31 10° NNW 00:52:35 52° W 00:53:17 49° WSW visible
04 Aug 7.5 22:35:12 10° NE 22:37:36 13° ENE 22:39:21 11° E visible
05 Aug 5.4 00:13:51 10° N 00:19:07 90° E 00:19:49 68° S visible
05 Aug 7.8 01:56:48 10° NW 01:59:01 13° WNW 02:00:17 12° W visible
05 Aug 5.8 23:40:25 10° N 23:45:32 52° E 23:46:22 47° ESE visible
06 Aug 7.2 01:21:55 10° NNW 01:25:52 22° W 01:26:50 21° W visible
06 Aug 6.5 23:07:13 10° NNE 23:11:48 30° ENE 23:12:55 28° E visible
